Location: Cubitt Town
(51.4833°N, 0.0000°E)
Time: 22:10:09
(UTC+00:00)

CZ-4B R/B - Pass Details

Date: 15 May 2026
Orbit: 700 x 797 km, 98.9° (Epoch: 11 June)

Event Time Altitude Azimuth Distance (km) Brightness Sun altitude
Exits shadow 21:23:17 15° 164° (SSE) 1,862 4.9 -11.9°
Maximum altitude 21:27:16 87° 251° (WSW) 723 3.4 -12.3°
Drops below altitude 10° 21:32:10 10° 344° (NNW) 2,233 7.2 -12.8°
Sets 21:34:29 0° 345° (NNW) 3,174 8.2 -13.0°
